Torna al catalogo

STARLINK-36099

AttivoComunicazioniVLEO
NORAD 66797·PAYLOAD·🇺🇸 United States

Lanciato Dec 1, 2025 da Cape Canaveral Space Force Station

Loading…

Prossimi Passaggi (prossime 24 ore)

TLE

AggiornatoSource: CelesTrak SupGP

Epoca: Sep 14, 2026, 20:51 UTC

1 66797C 25278G   26257.86923611 -.00026682  00000+0 -96659-3 0  2577
2 66797  43.0015 125.9929 0001211 262.8927  23.1527 15.27585808    18

Traccia STARLINK-36099 in tempo reale con AllMySat

Download on the App Store